Tracking 27371 objects as of 8-Jun-2023
HD Live streaming from Space Station
objects crossing your sky now

THOR BURNER 2 R/B

Track THOR BURNER 2 R/B now!
10-day predictions


NORAD ID: 2940
Int'l Code: 1967-080B
Perigee: 816.3 km
Apogee: 871.4 km
Inclination: 98.6 °
Period: 101.6 minutes
Semi major axis: 7214 km
RCS: 1.65 m2 (large)
Launch date: August 23, 1967
Source: United States (US)
Launch site: AIR FORCE WESTERN TEST RANGE (AFWTR)

Note: This is a ROCKET BODY
Your satellite tracking list
Your tracking list is empty




NASA's NSSDC Master Catalog

Two Line Element Set (TLE):
1 02940U 67080B   23158.61913523  .00000141  00000-0  91285-4 0  9990
2 02940  98.6060  10.3548 0038206 148.7926 211.5528 14.16655867878414
Source of the keplerian elements: AFSPC